This is the latest recevied weather packets stored in our database for station/object K9MWD. If no packets are shown the sender has not sent any weather packets the latest 10 day(s).
| Time | Temp. | Humidity | Pressure | Rain* | Wind** | Luminosity | Snow |
|---|---|---|---|---|---|---|---|
| 1788395119 | 32.22° C | 61% | 1012.2 hPa | 0 mm | - | 22 W/m² | - |
| 1788394813 | 32.22° C | 61% | 1012.2 hPa | 0 mm | - | 28 W/m² | - |
| 1788394508 | 32.22° C | 61% | 1012.2 hPa | 0 mm | - | 35 W/m² | - |
| 1788394207 | 32.22° C | 61% | 1012 hPa | 0 mm | - | 44 W/m² | - |
| 1788393903 | 32.22° C | 60% | 1012.1 hPa | 0 mm | - | 60 W/m² | - |
| 1788393601 | 32.22° C | 59% | 1012.1 hPa | 0 mm | - | 72 W/m² | - |
| 1788393296 | 32.22° C | 59% | 1011.9 hPa | 0 mm | - | 78 W/m² | - |
| 1788392990 | 32.22° C | 58% | 1011.9 hPa | 0 mm | - | 81 W/m² | - |
| 1788392685 | 31.67° C | 60% | 1011.8 hPa | 0 mm | - | 77 W/m² | - |
| 1788392384 | 31.67° C | 64% | 1011.7 hPa | 0 mm | - | 81 W/m² | - |
| 1788392079 | 31.11° C | 64% | 1011.7 hPa | 0 mm | - | 49 W/m² | - |
| 1788391778 | 30° C | 71% | 1011.8 hPa | 0 mm | - | 100 W/m² | - |
| 1788391473 | 28.89° C | 74% | 1011.8 hPa | 0 mm | - | 62 W/m² | - |
| 1788391182 | 28.33° C | 76% | 1011.7 hPa | 0 mm | - | 78 W/m² | - |
| 1788390868 | 27.22° C | 76% | 1011.8 hPa | 0 mm | - | 91 W/m² | - |
| 1788390562 | 27.22° C | 81% | 1011.8 hPa | 0 mm | - | 95 W/m² | - |
| 1788390262 | 27.22° C | 80% | 1011.7 hPa | 0 mm | - | 112 W/m² | - |
| 1788389962 | 27.78° C | 81% | 1011.7 hPa | 4.83 mm | - | 282 W/m² | - |
| 1788389657 | 27.78° C | 75% | 1011.8 hPa | 4.83 mm | - | 259 W/m² | - |
| 1788389356 | 30.56° C | 65% | 1012.1 hPa | 0 mm | - | 127 W/m² | - |
| 1788389055 | 31.11° C | 58% | 1011.9 hPa | 0 mm | - | 133 W/m² | - |
| 1788388753 | 32.22° C | 56% | 1012 hPa | 0 mm | - | 133 W/m² | - |
| 1788388453 | 33.89° C | 56% | 1011.6 hPa | 0 mm | - | 138 W/m² | - |
| 1788388147 | 35° C | 48% | 1011.4 hPa | 0 mm | - | 151 W/m² | - |
| 1788387845 | 36.11° C | 48% | 1011.4 hPa | 0 mm | - | 347 W/m² | - |
* Rain latest hour (hover to see other rain measurements)
** Current wind speed in m/s (hover to see current wind gust speed)